GFSSE_prec_cloud_273.txt.gz
Cloud_Cover
26 61 77 84 75 97 98 100 21 1 2 3 5 3 5 6 0 5 6 4 0 0 0 5 5 5 5 5 5 5 17 9 48 77 22 9 90 100 100 100 100 100 100
59 60 16 100 100 100 100 78 12 5 13 5 2 4 2 0 0 0 0 2 6 3 1 2 5 5 5 5 2 2 4 5 5 20 25 74 46 94 100 100 100 100 100
93 100 99 77 100 52 33 6 5 7 5 2 0 6 2 6 0 15 8 0 1 2 2 3 5 5 7 5 4 5 5 7 44 30 76 85 54 87 100 100 100 100 100
52 99 86 100 91 5 5 5 8 5 8 6 11 12 18 5 2 0 4 17 4 1 0 3 4 5 5 6 12 96 98 61 100 100 100 100 100 100 100 100 100 100 100
78 40 95 98 26 5 10 18 5 10 5 2 1 0 5 0 0 2 3 2 1 3 4 32 17 12 5 5 86 100 96 16 59 65 89 73 94 64 79 96 96 100 100
81 100 84 32 5 5 5 5 2 10 1 0 0 1 5 42 5 2 2 5 5 5 84 55 12 5 33 100 100 60 5 11 86 99 99 12 73 99 100 100 100 100 100
4 3 3 5 5 5 5 7 5 3 0 1 5 5 5 5 50 85 82 97 26 20 99 34 55 99 100 92 11 5 27 70 45 75 51 97 85 97 100 100 100 100 100
5 5 5 5 4 4 0 5 4 10 12 19 51 70 100 100 100 100 100 100 100 100 60 99 88 22 5 5 5 5 6 41 21 93 100 100 100 100 100 100 100 100 100
0 0 0 0 0 0 4 4 3 100 94 100 80 52 100 100 82 68 100 95 100 100 64 40 9 5 5 5 5 8 10 100 100 100 100 100 100 100 100 100 100 100 100
0 0 0 0 0 0 0 0 4 63 94 5 10 60 27 84 56 41 100 84 7 92 100 7 98 7 5 7 45 6 27 100 100 100 100 100 100 100 100 100 100 95 71
0 2 2 0 5 5 5 5 5 60 100 100 95 49 98 17 92 32 99 100 49 94 54 84 48 50 26 100 100 100 100 100 100 100 100 100 100 100 100 100 91 69 16
0 0 2 3 5 4 11 6 21 100 64 99 88 100 100 98 100 100 100 95 5 100 93 58 35 48 100 84 30 100 100 100 100 100 100 100 100 100 100 81 37 23 57
0 0 0 5 5 5 5 5 74 91 100 99 100 100 100 97 100 100 78 96 5 99 94 73 94 100 100 100 100 100 100 100 90 87 100 100 100 100 100 100 100 86 9
0 0 0 5 5 5 8 92 44 98 57 100 100 100 100 100 100 100 100 97 74 58 83 100 94 100 100 100 100 100 70 100 64 80 100 100 100 100 100 100 100 98 79
0 0 0 1 5 37 77 89 14 6 38 77 100 100 100 100 100 100 100 66 23 28 91 96 16 100 100 100 100 100 100 97 92 100 100 100 100 100 100 100 100 100 100
0 0 0 0 7 59 100 100 10 6 40 100 100 100 100 100 100 100 100 100 100 100 100 89 97 100 100 100 100 99 100 100 100 100 100 100 100 100 100 100 100 100 100
0 0 0 0 5 5 26 39 5 5 100 50 100 100 100 100 100 100 100 100 100 100 100 98 100 100 100 100 100 100 100 100 100 100 100 100 100 100 100 100 100 100 100
4 0 0 0 4 5 5 5 5 33 100 100 100 100 100 100 88 100 100 100 100 100 100 100 100 100 88 81 100 100 100 100 100 100 100 100 100 100 100 100 100 100 100
0 2 4 0 0 0 5 5 5 5 66 100 85 70 68 100 76 100 96 100 100 100 100 100 100 100 100 100 100 98 100 100 100 100 100 100 100 100 100 100 100 100 100
0 0 0 0 0 0 5 4 6 38 81 64 100 100 99 47 79 94 100 100 100 100 100 100 100 100 100 100 100 100 100 100 100 100 100 100 100 100 100 100 100 100 100
0 0 0 0 0 0 5 5 5 10 100 87 94 59 88 92 97 100 100 100 100 100 100 100 100 100 100 85 100 100 100 100 100 100 100 100 100 100 100 100 100 100 100
0 0 0 0 0 0 5 5 5 5 80 98 86 100 93 100 86 92 100 100 100 100 100 96 96 100 92 100 100 100 100 100 100 100 100 100 100 100 100 100 100 100 100
0 0 0 0 0 0 0 2 5 3 5 6 39 40 46 61 42 20 53 86 22 83 89 97 100 81 100 100 100 100 100 100 100 100 100 100 100 100 100 100 100 100 100
0 0 0 4 1 0 0 0 0 0 5 53 98 98 23 5 5 5 5 5 5 32 35 93 100 100 100 100 100 100 99 95 100 100 100 100 100 100 100 100 100 100 100
0 0 5 5 6 5 4 0 0 0 21 13 9 1 75 29 2 0 1 5 5 53 76 76 95 98 100 100 94 100 96 100 100 100 100 100 100 100 100 100 100 100 100
0 0 0 0 4 5 5 0 0 0 8 14 19 53 100 79 15 1 5 5 5 3 5 82 100 100 100 78 92 93 100 100 100 100 100 100 100 100 100 100 100 100 100

GFSSE_prec_cloud_276.txt.gz
Cloud_Cover
74 47 73 56 18 79 98 100 14 4 5 5 3 2 1 0 0 9 0 0 0 0 5 8 5 5 6 20 67 45 6 23 27 72 78 5 98 88 100 100 100 100 100
90 60 92 99 98 82 100 6 6 5 4 4 3 0 0 0 0 0 0 0 0 0 5 5 5 5 12 25 89 98 100 100 91 76 64 84 92 100 100 100 100 100 100
33 80 90 49 87 100 14 8 5 5 0 0 8 0 0 0 0 0 1 1 0 2 5 5 8 100 100 100 100 100 90 7 31 62 100 100 40 100 100 100 100 100 100
89 23 100 100 100 70 17 5 7 12 0 0 1 3 0 0 1 3 6 6 5 12 12 6 14 100 100 99 87 30 9 49 49 95 80 34 95 100 100 100 100 100 100
89 100 100 80 93 31 12 4 14 12 10 14 11 7 6 1 2 5 38 95 5 5 5 11 57 99 95 90 15 5 62 76 21 100 100 100 100 100 100 100 100 100 100
100 74 66 19 5 7 6 14 8 15 0 3 5 7 3 5 5 5 5 35 84 5 18 99 29 12 8 5 29 35 100 78 100 100 73 98 100 100 100 100 100 86 45
12 8 80 5 3 3 0 6 9 0 1 14 5 34 13 37 95 100 91 5 7 16 82 11 61 94 100 9 5 100 100 100 100 100 100 100 100 99 91 100 74 98 100
8 9 1 0 2 12 5 5 5 5 35 93 93 90 89 86 100 100 100 95 92 97 5 9 67 20 15 51 54 100 100 100 100 100 100 100 100 100 100 100 80 32 94
1 0 6 12 0 5 1 5 8 97 100 100 100 99 94 20 60 100 17 6 94 34 9 96 97 52 81 26 98 100 98 99 100 100 100 100 100 100 100 100 100 55 10
2 0 6 0 2 1 60 7 76 99 100 71 57 58 100 90 64 70 5 70 69 69 35 98 76 79 100 100 100 100 100 100 68 100 100 100 100 100 100 100 100 100 100
6 2 3 2 5 41 14 96 100 100 95 94 34 35 38 100 94 5 19 100 100 100 95 100 85 100 100 100 99 99 99 100 100 99 100 100 100 100 100 100 100 100 100
10 0 20 4 5 5 16 100 89 56 90 98 100 68 98 5 29 5 7 100 100 100 100 100 100 100 71 62 100 91 100 100 88 100 100 100 100 100 100 100 100 100 100
0 0 5 5 5 5 63 82 100 100 100 100 44 35 46 26 34 69 60 79 97 100 94 77 100 89 100 99 100 100 100 100 100 96 100 100 100 100 100 100 100 100 100
0 4 1 0 5 6 93 99 90 100 100 93 93 46 5 13 94 8 88 100 100 100 100 100 81 100 100 100 100 100 100 100 100 100 100 100 100 100 100 100 100 100 100
0 5 5 6 14 77 95 73 91 8 18 99 78 5 5 75 88 5 100 100 99 100 100 86 100 100 100 100 100 100 99 99 100 100 100 100 100 100 100 100 100 100 100
0 2 5 25 80 100 75 15 5 5 41 100 68 47 5 100 100 93 99 95 98 97 97 87 100 100 100 100 100 56 100 100 100 100 100 100 100 100 100 100 100 100 100
0 4 42 100 27 55 5 2 4 5 10 100 100 100 100 100 100 100 100 100 97 100 100 100 100 15 5 21 85 100 100 98 100 100 100 100 100 100 100 100 100 100 100
0 0 3 5 5 5 1 1 5 21 57 100 88 80 99 100 100 98 100 100 100 100 100 100 100 100 26 48 95 100 100 97 90 86 100 100 96 100 100 100 100 100 100
0 0 4 4 0 1 5 5 36 74 43 30 79 52 95 81 100 100 100 94 29 93 86 79 98 63 21 58 100 100 94 79 100 95 100 100 100 100 100 100 100 100 100
0 0 2 5 5 5 71 82 7 9 74 71 85 100 100 100 93 95 13 13 80 100 100 100 100 99 100 100 100 100 100 100 100 100 100 100 100 100 100 100 100 100 100
0 0 4 25 93 80 75 100 97 19 53 46 100 100 70 99 76 100 100 63 7 100 100 100 100 100 100 100 81 94 53 86 100 100 100 100 100 100 100 100 100 100 100
0 0 0 0 1 2 5 4 9 93 20 5 5 38 5 66 100 58 5 94 100 100 85 93 100 100 100 88 99 100 92 90 100 100 100 100 100 100 100 100 100 100 100
0 0 0 0 0 0 0 5 31 60 5 4 6 5 45 67 31 5 5 10 16 5 26 98 99 100 96 42 73 90 100 100 100 100 100 100 100 100 100 100 100 100 100
0 0 0 0 0 0 0 0 2 5 5 5 96 97 95 85 64 14 11 5 89 93 94 83 100 100 77 5 100 69 94 96 100 100 100 100 100 100 100 100 100 100 100
5 0 0 0 0 0 0 0 0 0 0 5 4 0 5 85 100 91 28 48 15 5 5 100 100 99 22 100 100 100 100 100 100 100 100 100 100 100 100 100 100 100 100
0 0 0 0 0 0 0 0 0 0 0 18 20 14 5 20 67 100 41 26 26 0 0 21 100 100 100 100 100 100 100 100 100 100 100 100 100 100 100 77 100 99 100

GFSSE_prec_cloud_279.txt.gz
Cloud_Cover
37 13 5 6 37 79 99 100 5 5 4 1 2 0 0 0 0 0 0 0 3 5 5 19 7 54 100 100 98 67 76 24 88 80 41 100 100 100 100 100 100 100 100
8 5 63 100 97 60 100 13 40 2 0 0 0 0 3 1 8 0 0 0 5 6 7 5 52 100 100 99 28 100 95 19 60 93 100 100 99 100 100 100 100 100 100
6 5 40 36 34 89 44 11 13 1 0 0 0 0 2 3 4 0 7 5 6 20 8 94 100 89 7 57 46 40 100 100 90 69 100 100 100 100 100 100 100 100 100
45 49 88 35 100 88 37 4 6 4 0 15 4 7 0 3 3 5 5 5 8 87 70 54 95 11 66 56 5 100 51 100 100 97 100 100 100 100 100 100 100 100 100
33 37 23 92 98 26 2 10 18 9 5 5 5 5 6 4 5 6 6 5 84 57 100 76 95 100 99 100 67 100 71 100 100 53 68 100 100 92 100 31 9 73 98
93 77 100 5 3 3 0 5 5 5 59 100 96 15 85 42 6 5 88 8 95 10 68 91 75 39 100 96 89 100 98 100 100 89 78 99 100 100 100 100 40 91 100
12 15 4 0 0 4 18 5 5 26 14 96 100 100 99 96 5 6 5 6 16 37 100 47 5 25 100 100 95 100 79 96 100 100 100 100 100 100 100 100 18 25 95
3 0 6 0 11 3 5 5 5 19 88 66 82 80 41 8 5 64 5 5 10 85 100 7 65 100 97 100 87 95 100 100 100 100 100 100 100 100 100 100 100 90 95
3 6 8 0 4 5 5 5 76 100 100 64 46 9 5 5 16 100 9 19 100 100 88 83 100 98 98 79 36 99 100 100 100 100 100 100 100 100 100 100 100 100 100
7 2 15 27 2 6 9 100 100 100 100 100 56 5 5 5 5 5 5 91 98 98 100 100 100 50 94 100 100 100 100 100 90 100 100 100 100 100 100 100 100 100 100
0 0 3 5 10 10 88 98 100 100 5 21 42 15 5 11 4 5 5 78 100 100 99 100 83 82 92 100 100 100 97 98 95 100 100 100 100 100 100 100 100 100 100
0 0 5 0 5 48 100 87 18 21 67 86 9 12 5 5 5 5 12 100 81 100 100 100 100 100 100 100 100 100 100 99 100 99 98 100 100 100 100 100 100 100 100
0 0 0 5 65 100 100 86 100 99 77 18 4 5 5 5 5 5 16 56 73 87 100 86 100 100 95 100 100 100 100 99 100 100 100 100 100 100 100 100 100 100 100
0 0 93 5 5 36 28 100 100 100 78 40 5 8 9 8 8 5 58 15 93 97 100 74 98 60 100 98 100 100 100 99 100 92 100 100 100 100 100 100 100 100 100
0 4 25 5 5 66 42 32 67 100 12 5 5 10 18 5 5 5 33 90 96 100 100 100 31 76 86 100 100 100 100 100 85 100 100 100 84 98 100 100 100 100 100
0 3 3 5 10 18 5 5 5 35 40 5 5 40 93 90 84 21 71 100 100 100 100 84 73 90 100 100 100 100 100 98 100 98 89 100 100 98 100 100 100 100 100
0 4 4 5 5 8 5 5 5 5 13 5 4 49 100 100 42 100 55 100 100 100 100 100 78 100 100 16 56 65 91 96 94 92 100 100 100 100 100 100 100 100 100
0 5 5 5 8 5 2 5 1 6 43 5 5 100 100 98 69 28 11 6 38 100 100 100 100 100 92 20 36 31 76 78 79 100 98 100 100 99 100 100 100 100 100
5 3 5 0 0 0 0 4 34 100 39 5 27 44 8 91 100 19 9 25 91 100 100 92 100 100 72 7 6 45 23 88 35 100 92 100 100 100 100 100 100 100 100
5 5 4 5 4 29 13 5 57 49 5 3 51 7 86 99 71 26 88 79 30 11 34 70 100 100 43 12 86 96 83 44 99 78 100 100 100 100 100 100 100 100 100
0 1 6 6 5 5 5 24 5 5 5 7 5 5 77 70 69 49 5 5 23 5 71 14 100 100 100 91 69 100 100 100 69 100 100 100 100 100 100 100 100 100 100
0 0 0 1 4 0 1 5 79 40 5 5 5 7 24 86 78 32 5 7 5 28 100 100 100 100 100 100 100 100 100 99 100 100 100 86 100 100 100 100 100 100 100
0 0 0 0 0 0 0 3 34 5 3 31 61 93 5 12 6 18 2 3 5 1 82 100 100 100 100 100 100 100 100 100 100 94 100 100 100 100 100 100 100 100 100
0 0 0 0 0 0 0 0 0 1 3 0 12 95 50 97 90 93 78 5 5 3 41 85 100 100 100 100 100 100 100 100 100 100 100 100 100 100 100 100 100 88 98
0 0 0 0 0 0 0 0 0 0 0 0 3 5 10 33 23 100 100 47 29 100 63 6 100 100 100 100 100 100 100 100 100 100 100 100 100 100 100 100 100 100 100
0 0 0 0 0 0 0 0 0 0 0 0 2 5 5 5 5 4 4 5 7 26 4 4 5 5 10 99 100 100 100 100 100 100 100 100 100 100 100 100 100 100 89

GFSSE_prec_cloud_285.txt.gz
Cloud_Cover
22 42 30 57 5 6 100 39 0 1 0 0 0 0 0 1 7 8 5 29 70 46 90 100 100 100 85 99 78 100 100 100 25 73 100 54 56 98 88 100 100 100 97
17 7 5 10 5 98 86 0 0 0 0 0 0 3 1 30 80 7 79 9 5 100 100 100 97 100 56 34 99 100 99 100 100 100 100 100 100 94 100 100 100 100 100
15 5 5 5 6 87 1 4 0 12 2 1 5 3 8 9 39 18 4 84 100 95 100 61 49 54 51 93 100 93 54 97 100 100 100 100 100 100 34 57 6 91 100
14 6 5 5 77 8 5 2 0 6 4 5 6 6 5 5 12 5 10 91 100 100 94 32 62 100 100 98 96 25 89 100 95 100 100 100 100 100 100 92 71 66 72
31 18 25 4 5 3 0 0 0 0 5 5 20 5 5 6 8 5 63 79 98 85 6 49 91 100 66 100 98 97 100 76 84 100 100 100 100 100 99 100 100 100 100
99 58 35 93 4 2 0 0 4 5 5 71 55 7 9 5 5 5 5 12 98 100 52 92 100 100 97 72 100 65 100 82 100 100 100 75 84 100 100 100 100 100 100
49 4 31 1 3 1 0 8 18 10 6 50 5 14 5 5 5 5 5 6 87 39 96 90 100 100 78 59 76 82 100 100 100 84 57 88 63 100 98 89 100 100 100
17 1 2 0 1 1 4 4 12 5 6 5 5 4 1 5 5 5 5 25 81 36 81 91 84 76 100 77 100 23 99 100 100 99 47 40 94 100 100 100 100 100 100
19 38 0 0 0 4 8 4 1 5 5 5 4 3 1 0 1 5 74 99 37 87 99 100 74 25 65 58 85 96 42 98 55 70 99 64 91 100 100 100 99 99 100
0 0 0 1 3 100 37 5 6 8 3 5 5 5 0 5 2 4 69 53 32 80 17 17 9 5 39 99 100 100 89 94 56 100 100 100 100 92 100 100 100 65 100
0 0 29 41 100 100 83 0 0 4 0 5 5 5 7 54 68 61 76 74 98 96 58 9 80 8 76 59 37 36 56 100 100 100 100 100 100 100 100 100 100 100 100
0 0 19 48 38 16 35 5 10 5 28 92 84 65 62 86 69 96 89 73 38 52 50 59 68 77 96 91 100 35 80 100 100 100 100 100 100 100 100 100 100 100 100
0 1 0 30 10 10 9 42 14 100 99 63 5 13 96 39 99 95 99 76 78 40 43 52 80 82 100 74 93 77 87 100 100 100 99 100 100 100 100 100 100 100 100
0 0 0 1 0 27 100 100 19 55 37 87 100 58 18 86 86 67 100 65 18 34 76 99 98 98 35 92 87 85 13 98 95 100 100 100 100 100 100 100 100 100 100
0 0 1 5 5 34 100 99 67 48 80 100 47 38 94 96 90 93 100 85 40 92 100 88 100 44 93 72 20 48 81 100 100 100 100 100 100 100 100 100 100 100 100
0 25 4 21 5 63 10 50 90 100 47 78 49 100 19 94 33 71 83 96 100 95 100 100 100 100 100 100 94 16 96 60 100 66 100 100 100 100 100 100 100 100 100
0 5 3 5 5 11 14 68 78 99 99 98 42 16 98 100 63 6 83 100 100 100 100 100 100 100 100 90 98 32 84 10 97 100 100 100 100 100 100 100 100 100 100
5 1 0 4 0 4 17 34 100 100 91 100 99 100 100 51 11 33 90 93 98 100 100 95 100 100 100 88 100 100 93 49 100 100 100 100 100 100 90 100 100 100 100
4 5 2 0 0 0 8 20 56 88 11 100 100 100 78 90 86 13 53 100 28 77 100 100 70 100 100 100 100 100 100 67 76 96 100 100 100 52 100 100 100 100 100
2 0 0 0 0 0 19 6 93 100 100 61 100 100 60 77 19 57 100 10 54 44 100 100 31 67 100 100 100 100 100 100 93 45 99 98 100 100 100 95 100 100 100
0 0 0 0 0 0 0 80 99 89 16 100 100 60 8 23 62 22 68 9 2 100 100 95 100 100 88 100 100 100 100 100 100 100 100 100 100 100 99 100 100 100 100
0 0 0 0 0 0 0 4 80 60 77 59 100 29 28 66 13 10 4 15 8 12 95 73 46 100 98 100 100 100 100 97 100 100 100 100 100 100 100 100 100 100 100
0 0 0 0 0 0 1 5 5 5 6 5 5 5 7 4 5 5 75 100 4 0 36 36 22 50 4 38 100 38 72 100 83 100 100 100 100 100 100 100 100 100 100
0 0 0 0 0 0 0 43 3 4 61 92 60 63 89 4 27 18 5 9 13 5 0 6 49 6 4 5 13 19 22 53 100 100 100 100 100 100 100 100 100 100 100
0 0 0 0 0 0 0 0 4 12 5 83 5 5 0 64 5 0 1 5 5 0 36 0 4 5 5 15 1 39 64 23 11 83 100 100 100 100 100 100 100 100 100
0 0 0 0 0 0 0 0 0 0 0 14 10 5 4 43 46 8 2 4 0 0 4 5 5 100 6 5 3 0 37 56 97 100 100 100 100 100 100 100 100 100 100

GFSSE_prec_cloud_291.txt.gz
Cloud_Cover
8 39 15 5 5 3 0 0 3 0 0 4 6 10 5 5 5 5 8 13 95 9 5 11 41 19 13 5 94 32 9 8 5 5 28 84 33 38 10 64 99 97 94
24 5 5 5 5 0 0 0 0 3 3 5 3 5 5 5 5 5 5 5 5 25 6 86 33 5 5 85 78 96 22 61 5 32 8 5 5 13 6 7 14 37 5
35 5 5 5 5 4 0 23 0 0 3 5 5 0 1 5 5 6 5 6 5 5 5 14 14 48 84 92 99 38 5 23 6 87 93 83 8 5 5 5 10 6 36
5 5 5 5 5 1 0 5 5 5 4 5 4 5 5 4 6 53 15 5 5 5 78 25 71 47 100 100 90 64 100 100 100 100 97 100 95 98 100 93 21 87 95
5 5 5 7 6 5 5 5 5 8 5 22 13 81 5 5 6 5 92 5 38 98 76 14 63 100 100 100 100 100 100 100 100 100 100 100 100 100 100 100 100 95 62
1 5 5 52 28 92 96 6 8 97 78 71 100 5 5 5 14 8 9 78 99 100 26 100 100 100 100 100 100 100 100 100 100 100 100 100 100 100 100 100 100 100 100
5 4 5 100 32 95 40 67 100 100 40 5 32 5 5 5 5 5 100 100 98 14 5 69 100 100 100 100 100 100 100 100 100 100 100 100 100 98 100 100 100 100 100
4 1 40 91 5 90 40 64 99 86 89 5 5 5 22 14 15 35 96 68 5 5 85 100 100 100 100 100 100 100 100 100 100 100 100 100 100 100 100 100 100 100 100
0 5 7 37 10 53 100 28 90 69 8 5 4 5 74 28 100 100 39 14 46 87 100 100 100 100 100 100 94 100 100 100 100 100 100 100 100 100 100 100 100 100 100
0 5 20 38 5 48 53 34 94 97 73 5 38 5 5 26 100 100 100 94 97 100 100 100 100 100 100 100 100 100 100 100 100 100 100 100 100 100 100 100 100 100 100
0 7 12 64 5 5 19 18 14 6 19 5 4 78 17 84 77 99 79 60 33 100 100 100 100 100 100 100 100 100 100 100 100 100 100 100 100 100 100 100 100 100 100
4 53 100 5 5 5 7 5 5 5 33 5 5 8 5 5 24 70 10 60 100 100 100 100 100 100 100 100 100 100 100 100 100 100 100 100 100 100 100 100 100 100 100
7 100 52 8 50 42 31 11 5 5 49 14 38 39 39 35 5 23 44 52 100 100 100 100 100 100 100 100 100 100 100 100 100 100 100 100 100 100 100 100 100 100 100
28 75 4 11 100 100 5 5 5 5 5 8 100 100 33 52 100 100 100 100 100 100 100 98 58 100 100 100 100 100 100 100 100 100 100 100 100 100 96 100 100 100 96
16 5 5 99 100 12 2 99 5 55 5 8 100 100 98 100 100 100 100 100 78 84 86 57 78 82 100 100 100 100 100 100 100 99 100 100 100 100 100 100 100 100 68
0 1 5 94 29 5 0 0 5 0 5 5 94 29 16 93 100 100 100 100 100 45 100 100 100 18 100 100 100 100 100 100 95 100 100 100 100 100 100 100 100 100 100
0 4 5 18 6 5 0 0 4 12 6 5 39 57 40 100 100 100 100 99 100 81 99 100 98 100 64 100 100 100 100 100 100 100 100 100 100 100 100 100 100 100 100
0 0 0 5 1 5 0 0 5 5 9 78 6 11 24 100 100 100 100 100 100 100 100 24 91 100 100 100 100 100 100 100 72 94 100 100 98 100 100 100 100 100 100
0 0 0 0 1 3 0 0 2 5 6 59 66 100 98 34 100 100 100 100 49 100 97 88 100 80 96 66 68 63 36 5 6 41 17 82 100 92 68 100 100 100 100
1 0 0 0 0 0 4 5 4 0 0 2 54 95 100 1 7 6 67 28 1 20 77 23 100 100 100 100 100 99 47 6 5 5 7 28 100 100 80 100 100 100 100
0 0 0 0 0 0 0 1 45 11 3 100 100 98 66 5 1 0 30 27 89 9 2 3 100 100 100 100 59 7 5 31 5 5 6 85 100 100 65 100 100 100 100
0 0 0 0 0 0 0 0 0 2 98 86 21 91 100 100 42 5 31 0 0 76 2 11 70 5 25 81 5 5 1 0 2 5 54 100 100 100 90 94 100 100 100
0 0 0 0 0 0 0 0 0 0 3 5 0 1 43 34 41 98 4 0 3 98 4 4 5 15 96 84 2 0 0 39 78 100 100 100 100 97 66 100 100 100 84
0 0 0 0 0 0 0 0 0 0 0 0 0 7 71 5 10 5 0 0 0 0 0 3 0 0 0 0 0 0 2 5 100 100 100 100 100 100 99 100 100 90 78
0 0 0 0 0 0 0 0 0 2 4 0 2 38 4 4 0 0 0 0 0 0 0 0 0 0 0 0 0 0 0 36 100 100 100 100 100 98 100 98 85 84 24
0 0 0 0 0 0 0 0 0 0 3 4 0 0 63 4 3 5 69 1 0 0 0 0 0 0 0 0 0 0 4 5 100 100 100 100 100 100 100 98 11 9 70